| time (UTC) | temp C | wind direction | speed KPH | gust KPH | rain 1hr cm | rain 24hr cm | rain mn cm | humidity % | barometer mb |
| 20260507103045 | 6 | 346 | 0.0 | 1.6 | 0.00 | 0.00 | 0.00 | 57 | 1014.6 |
| 20260507101548 | 6 | 54 | 0.0 | 3.2 | 0.00 | 0.00 | 0.00 | 66 | 1014.5 |
| 20260507100044 | 6 | 69 | 0.0 | 0.0 | 0.00 | 0.00 | 0.00 | 62 | 1014.6 |
| 20260507094545 | 6 | 43 | 0.0 | 8.0 | 0.00 | 0.00 | 0.00 | 63 | 1014.4 |
| 20260507093042 | 6 | 9 | 0.0 | 9.7 | 0.00 | 0.00 | 0.00 | 67 | 1014.4 |
| 20260507091536 | 5 | 330 | 0.0 | 0.0 | 0.00 | 0.00 | 0.00 | 69 | 1014.5 |
| 20260507090036 | 5 | 18 | 0.0 | 1.6 | 0.00 | 0.00 | 0.00 | 70 | 1014.4 |
| 20260507084536 | 6 | 111 | 0.0 | 4.8 | 0.00 | 0.00 | 0.00 | 69 | 1014.4 |
| 20260507083032 | 5 | 98 | 1.6 | 6.4 | 0.00 | 0.00 | 0.00 | 73 | 1014.4 |
| 20260507081530 | 4 | 25 | 0.0 | 0.0 | 0.00 | 0.00 | 0.00 | 75 | 1014.4 |
| 20260507080029 | 5 | 329 | 0.0 | 3.2 | 0.00 | 0.00 | 0.00 | 74 | 1014.3 |
| 20260507074528 | 5 | 310 | 0.0 | 1.6 | 0.00 | 0.00 | 0.00 | 71 | 1014.2 |
| 20260507073026 | 6 | 252 | 0.0 | 3.2 | 0.00 | 0.00 | 0.00 | 73 | 1014.1 |
| 20260507071520 | 4 | 263 | 0.0 | 4.8 | 0.00 | 0.00 | 0.00 | 76 | 1014.1 |
| 20260507070020 | 3 | 107 | 0.0 | 1.6 | 0.00 | 0.00 | 0.00 | 78 | 1014.1 |
| 20260507064515 | 3 | 87 | 0.0 | 1.6 | 0.00 | 0.00 | 0.00 | 81 | 1014.2 |
| 20260507063014 | 3 | 235 | 0.0 | 1.6 | 0.00 | 0.00 | 0.00 | 83 | 1014.1 |
| 20260507061509 | 2 | 74 | 0.0 | 0.0 | 0.00 | 0.00 | 0.00 | 85 | 1014.1 |
| 20260507060006 | 2 | 36 | 0.0 | 0.0 | 0.00 | 0.00 | 0.00 | 89 | 1014.1 |
| 20260507054504 | 1 | 23 | 0.0 | 1.6 | 0.00 | 0.00 | 0.00 | 92 | 1014.0 |
| 20260507053103 | 1 | 70 | 0.0 | 4.8 | 0.00 | 0.00 | 0.00 | 93 | 1013.9 |
| 20260507051556 | 0 | 90 | 0.0 | 1.6 | 0.00 | 0.00 | 0.00 | 94 | 1013.8 |
| 20260507050053 | 0 | 51 | 0.0 | 0.0 | 0.00 | 0.00 | 0.00 | 95 | 1013.9 |
| 20260507044559 | 0 | 51 | 0.0 | 0.0 | 0.00 | 0.00 | 0.00 | 95 | 1013.8 |
| 20260507043048 | 0 | 39 | 0.0 | 0.0 | 0.00 | 0.00 | 0.00 | 96 | 1013.7 |
| 20260507041549 | 0 | 88 | 0.0 | 0.0 | 0.00 | 0.00 | 0.00 | 96 | 1013.7 |
| 20260507040044 | -1 | 88 | 0.0 | 0.0 | 0.00 | 0.00 | 0.00 | 96 | 1013.6 |
| 20260507034544 | -1 | 75 | 0.0 | 0.0 | 0.00 | 0.00 | 0.00 | 96 | 1013.5 |
| 20260507033038 | -2 | 75 | 0.0 | 0.0 | 0.00 | 0.00 | 0.00 | 96 | 1013.3 |
| 20260507031536 | -2 | 75 | 0.0 | 0.0 | 0.00 | 0.00 | 0.00 | 96 | 1013.2 |
| 20260507030035 | -2 | 75 | 0.0 | 0.0 | 0.00 | 0.00 | 0.00 | 96 | 1013.1 |
| 20260507024539 | -2 | 75 | 0.0 | 0.0 | 0.00 | 0.00 | 0.00 | 96 | 1013.0 |
| 20260507023033 | -2 | 75 | 0.0 | 0.0 | 0.00 | 0.00 | 0.00 | 96 | 1013.0 |
| 20260507021532 | -2 | 75 | 0.0 | 0.0 | 0.00 | 0.00 | 0.00 | 96 | 1013.0 |
| 20260507020041 | -3 | 75 | 0.0 | 0.0 | 0.00 | 0.00 | 0.00 | 96 | 1012.9 |
| 20260507014534 | -3 | 75 | 0.0 | 0.0 | 0.00 | 0.00 | 0.00 | 95 | 1012.8 |
| 20260507013030 | -2 | 75 | 0.0 | 0.0 | 0.00 | 0.00 | 0.00 | 95 | 1012.8 |
| 20260507011526 | -2 | 75 | 0.0 | 0.0 | 0.00 | 0.00 | 0.00 | 95 | 1012.7 |
| 20260507010028 | -2 | 75 | 0.0 | 0.0 | 0.00 | 0.00 | 0.00 | 95 | 1012.7 |
| 20260507004530 | -2 | 75 | 0.0 | 0.0 | 0.00 | 0.00 | 0.00 | 95 | 1012.6 |
| 20260507003028 | -2 | 75 | 0.0 | 0.0 | 0.00 | 0.00 | 0.00 | 95 | 1012.6 |
| 20260507001534 | -2 | 75 | 0.0 | 0.0 | 0.00 | 0.00 | 0.00 | 95 | 1012.5 |
| 20260507000022 | -2 | 75 | 0.0 | 0.0 | 0.00 | 0.00 | 0.00 | 95 | 1012.4 |
| 20260506234521 | -2 | 75 | 0.0 | 0.0 | 0.00 | 0.00 | 0.00 | 95 | 1012.3 |
| 20260506233017 | -2 | 75 | 0.0 | 0.0 | 0.00 | 0.00 | 0.00 | 95 | 1012.2 |
| 20260506231517 | -2 | 75 | 0.0 | 0.0 | 0.00 | 0.00 | 0.00 | 95 | 1012.2 |
| 20260506230016 | -2 | 75 | 0.0 | 0.0 | 0.00 | 0.00 | 0.00 | 95 | 1012.1 |
| 20260506224515 | -2 | 75 | 0.0 | 0.0 | 0.00 | 0.00 | 0.00 | 95 | 1012.0 |
| 20260506223013 | -2 | 75 | 0.0 | 0.0 | 0.00 | 0.00 | 0.00 | 95 | 1012.0 |
| 20260506221512 | -2 | 75 | 0.0 | 0.0 | 0.00 | 0.00 | 0.00 | 95 | 1011.9 |
| 20260506220011 | -2 | 75 | 0.0 | 0.0 | 0.00 | 0.00 | 0.00 | 95 | 1011.8 |
| 20260506214510 | -2 | 75 | 0.0 | 0.0 | 0.00 | 0.00 | 0.00 | 95 | 1011.8 |
| 20260506213011 | -2 | 75 | 0.0 | 0.0 | 0.00 | 0.00 | 0.00 | 95 | 1011.6 |
| 20260506211505 | -2 | 75 | 0.0 | 0.0 | 0.00 | 0.00 | 0.00 | 95 | 1011.5 |
| 20260506210004 | -2 | 75 | 0.0 | 0.0 | 0.00 | 0.00 | 0.00 | 94 | 1011.5 |
| 20260506204502 | -2 | 75 | 0.0 | 0.0 | 0.00 | 0.00 | 0.00 | 94 | 1011.5 |
| 20260506203059 | -2 | 75 | 0.0 | 0.0 | 0.00 | 0.00 | 0.00 | 92 | 1011.5 |
| 20260506201556 | -1 | 75 | 0.0 | 0.0 | 0.00 | 0.00 | 0.00 | 92 | 1011.3 |
| 20260506200051 | -1 | 75 | 0.0 | 0.0 | 0.00 | 0.00 | 0.00 | 91 | 1011.3 |
| 20260506194600 | 0 | 75 | 0.0 | 0.0 | 0.00 | 0.00 | 0.00 | 91 | 1011.1 |
| 20260506193049 | 0 | 75 | 0.0 | 0.0 | 0.00 | 0.00 | 0.00 | 91 | 1011.0 |
| 20260506191544 | 1 | 75 | 0.0 | 0.0 | 0.00 | 0.00 | 0.00 | 90 | 1010.9 |
| 20260506190044 | 1 | 55 | 0.0 | 1.6 | 0.00 | 0.00 | 0.00 | 89 | 1010.7 |
| 20260506184541 | 1 | 82 | 0.0 | 0.0 | 0.00 | 0.03 | 0.00 | 88 | 1010.5 |
| 20260506183040 | 2 | 139 | 0.0 | 0.0 | 0.00 | 0.03 | 0.00 | 87 | 1010.5 |
| 20260506181545 | 2 | 145 | 0.0 | 0.0 | 0.00 | 0.03 | 0.00 | 86 | 1010.6 |
| 20260506180042 | 2 | 95 | 0.0 | 0.0 | 0.00 | 0.03 | 0.00 | 85 | 1010.5 |
| 20260506174537 | 2 | 37 | 0.0 | 1.6 | 0.00 | 0.05 | 0.00 | 84 | 1010.4 |
| 20260506173035 | 2 | 236 | 0.0 | 0.0 | 0.00 | 0.05 | 0.00 | 84 | 1010.3 |
| 20260506171549 | 2 | 68 | 0.0 | 6.4 | 0.00 | 0.05 | 0.00 | 83 | 1010.3 |
| 20260506170038 | 2 | 179 | 0.0 | 0.0 | 0.00 | 0.05 | 0.00 | 83 | 1010.2 |
| 20260506164534 | 2 | 277 | 0.0 | 0.0 | 0.00 | 0.05 | 0.00 | 81 | 1010.1 |
| 20260506163041 | 3 | 346 | 0.0 | 6.4 | 0.00 | 0.05 | 0.00 | 78 | 1010.1 |
| 20260506161529 | 3 | 229 | 0.0 | 0.0 | 0.00 | 0.05 | 0.00 | 69 | 1009.8 |
| 20260506160030 | 4 | 44 | 0.0 | 0.0 | 0.00 | 0.05 | 0.00 | 68 | 1009.3 |
| 20260506154527 | 4 | 1 | 0.0 | 3.2 | 0.00 | 0.08 | 0.00 | 65 | 1009.3 |
| 20260506153027 | 5 | 228 | 0.0 | 8.0 | 0.00 | 0.08 | 0.00 | 62 | 1009.5 |
| 20260506151532 | 6 | 288 | 0.0 | 12.9 | 0.00 | 0.08 | 0.00 | 52 | 1009.2 |
| 20260506150022 | 6 | 246 | 0.0 | 1.6 | 0.00 | 0.08 | 0.00 | 47 | 1009.0 |
| 20260506144521 | 6 | 201 | 0.0 | 0.0 | 0.00 | 0.08 | 0.00 | 47 | 1008.9 |
| 20260506143021 | 6 | 221 | 0.0 | 1.6 | 0.00 | 0.08 | 0.00 | 47 | 1008.9 |
| 20260506141519 | 6 | 233 | 0.0 | 3.2 | 0.00 | 0.08 | 0.00 | 46 | 1008.9 |
| 20260506140023 | 7 | 259 | 0.0 | 3.2 | 0.00 | 0.08 | 0.00 | 44 | 1008.8 |
| 20260506134517 | 7 | 176 | 0.0 | 4.8 | 0.00 | 0.08 | 0.00 | 46 | 1008.7 |
| 20260506133036 | 7 | 314 | 0.0 | 4.8 | 0.00 | 0.08 | 0.00 | 43 | 1008.6 |
| 20260506131520 | 8 | 217 | 0.0 | 4.8 | 0.00 | 0.08 | 0.00 | 42 | 1008.6 |
| 20260506130012 | 7 | 16 | 0.0 | 6.4 | 0.00 | 0.08 | 0.00 | 42 | 1008.6 |
| 20260506124510 | 8 | 222 | 1.6 | 8.0 | 0.00 | 0.08 | 0.00 | 43 | 1008.5 |
| 20260506123007 | 7 | 183 | 0.0 | 4.8 | 0.00 | 0.08 | 0.00 | 44 | 1008.5 |
| 20260506121503 | 6 | 271 | 0.0 | 0.0 | 0.00 | 0.08 | 0.00 | 47 | 1008.4 |
| 20260506120100 | 5 | 212 | 0.0 | 1.6 | 0.00 | 0.08 | 0.00 | 50 | 1008.4 |
| 20260506114604 | 5 | 98 | 0.0 | 3.2 | 0.00 | 0.08 | 0.00 | 47 | 1008.3 |
| 20260506113101 | 5 | 330 | 0.0 | 3.2 | 0.00 | 0.08 | 0.00 | 47 | 1008.2 |
| 20260506111605 | 5 | 47 | 0.0 | 3.2 | 0.00 | 0.08 | 0.00 | 47 | 1008.1 |
| 20260506110054 | 5 | 333 | 0.0 | 1.6 | 0.00 | 0.08 | 0.00 | 47 | 1008.1 |
| 20260506104558 | 5 | 71 | 0.0 | 3.2 | 0.00 | 0.08 | 0.00 | 50 | 1007.8 |